Location: Poughquag
(41.6090°N, 73.6820°W)
Time: 02:04:46
(UTC-04:00)

Falcon 9 debris - Visible Passes

Search period start: 16 September 2019 00:00
Search period end: 26 September 2019 00:00
Orbit: 432 x 437 km, 53.0° (Epoch: 15 September)

Date Brightness Start Highest point End Pass type
(mag) Time Alt. Az. Time Alt. Az. Time Alt. Az.
16 Sep 5.1 04:39:18 21° NNW 04:39:18 21° NNW 04:41:52 10° NNE visible
17 Sep 5.9 03:58:30 16° NNE 03:58:30 16° NNE 03:59:32 10° NE visible
17 Sep 5.7 05:32:46 10° NW 05:34:29 13° N 05:36:11 10° NNE visible
18 Sep 5.6 04:50:59 13° NNW 04:51:48 14° N 04:53:43 10° NNE visible
19 Sep 6.0 04:10:11 14° N 04:10:11 14° N 04:11:19 10° NNE visible
19 Sep 5.8 05:45:29 10° NNW 05:47:17 13° N 05:49:06 10° NE visible
20 Sep 5.9 05:02:56 10° NNW 05:04:36 13° N 05:06:15 10° NNE visible
21 Sep 6.0 04:21:55 13° N 04:21:55 13° N 04:23:30 10° NNE visible
21 Sep 5.5 05:57:21 10° NNW 05:59:59 20° NNE 06:02:36 10° ENE visible
22 Sep 5.7 05:15:01 10° NNW 05:17:20 17° NNE 05:19:39 10° ENE visible
23 Sep 5.8 04:33:49 14° N 04:34:39 15° NNE 04:36:41 10° NE visible
23 Sep 4.4 06:09:06 10° NW 06:12:25 40° NNE 06:15:43 10° ESE visible
24 Sep 6.5 03:53:15 11° NNE 03:53:15 11° NNE 03:53:45 10° NE visible
24 Sep 4.9 05:26:44 10° NW 05:29:51 30° NNE 05:32:58 10° E visible
25 Sep 5.2 04:46:04 19° N 04:47:16 23° NNE 04:50:07 10° E visible
